CZ-3C DEB, 40818

Orbit data source: Space-Track

CZ-3C DEB, 40818 is space debris in HEO originally from a launch on Sun, 31 Oct 2010 UTC launched from the Xichang Space Center, China (XSC). Debris objects in space refer to the collection of defunct objects orbiting the Earth. Examples of debris include non-operational satellites, rocket bodies, and fragments generated from explosions, collisions, or faulty payload assembly.

Loading next visibility...
Identifier
40818, 2010-057AK
Orbit
HEO
Last TLE update
2 days ago
Origin
Manufacturer
CALT
Mission
Spacecraft
Bus & Motor
Unknown
Mass
Unknown
Launch date (UTC)
2010-10-31 (15 years ago)
Launch vehicle
Unknown
Launch site
Xichang Space Center, China (XSC)
Object type
Payload
Rocket body
Debris
Shape & HBR
Unknown
Radar Cross Section
Small (<0.1 m²)

Expand to show TLE details & history

TLE from 2 days ago
0 CZ-3C DEB
1 40818U 10057AK  25180.43502463  .00000006  00000-0  18113-2 0  9999
2 40818  20.0348 218.8469 7104529 300.5631   8.2621  2.25728023 85018
Epoch: 2025-06-29T10:26Z
TLE epoch observation values (Epoch: 2025-06-29T10:26:26.128Z)
Latitude
0.00008°
Longitude
144.63149°
Altitude
2,584.626 km
Speed
8.526 km/s
True Right ascension
14h 35m 59s
True Declination
0° 00' 00"
Sunlit
Object was in daylight at epoch
Visualization orbit readout
Latitude
18.69332°
Longitude
-104.27846°
Altitude
33,778.162 km
Speed
1.902 km/s
Apparent Right ascension
22h 14m 17s
Apparent Declination
14° 38' 02"
Sunlit
Object is in daylight
Visualization observer readout
Local Sidereal Time
20:21:44
Azimuth
127.787° SE
Elevation
54.739°
Doppler factor
1
Orbital elements
Apogee altitude
35,616.898 km
Perigee altitude
730.823 km
Semi-major axis
24,551.997 km
Eccentricity
0.71045
Inclination
20.0348°
RAAN
218.8469°
Arg. of periapsis
300.5631°
True anomaly
Unknown
Mean anomaly
8.2621°
Eccentric anomaly
Unknown
Mean motion
0.56417 °/min
Orbital period
638.1 mins
BSTAR
0.0018113
Loading maneuver chart data...
Loading SW <> Apogee altitude chart data...
Loading historical data...
Loading historical data...
Loading historical data...
Loading historical data...
Loading historical data...
Loading historical data...
Loading historical data...

CZ-3C DEB Visibility forecast

Observer location: undefined°, undefined°

Span
Click to sort rows by Start time (UTC) header in descending order
Start Az.
Max El. time (UTC)
Max El. Az.
Max El.
End time (UTC)
End Az.
363 mins2025-07-01 08:43:34.828Z127.81° SE2025-07-01 10:56:34.828Z156.739° SSE40.695°2025-07-01 14:46:34.828Z150.037° SSE
384 mins2025-07-02 02:19:34.828Z142.807° SSE2025-07-02 08:43:34.828Z107.927° ESE28.927°2025-07-02 08:43:34.828Z107.927° ESE
|